sat.trackr.live / text

‹ back to catalog

STARLINK-30235

NORAD 57294 · 2023-096E

PAYLOAD ACTIVE UNKNOWN

§ Identity

Operator
Country
US
Launch date
2023-07-10
Launch site
AFETR
Launch vehicle
Mass (kg)
RCS (m²)

Purposes: comms

External: N2YO · Heavens-Above · Gunter

§ Orbital elements

Epoch: 2026-05-25T00:52:24.218688Z

Period
94.27 min
Inclination
43.0013°
Eccentricity
0.0001433
Mean motion
15.27576617 rev/d
Perigee alt
482.1 km
Apogee alt
484.0 km
Semi-major
6,861.2 km
B*
4.7442e-5
RAAN
152.0117°
Arg perigee
278.4892°
Mean anomaly
81.5797°
Rev number
15,929

§ Raw data

STARLINK-302351 57294U 23096E   26145.03639142  .00001043  00000+0  47442-4 0  99952 57294  43.0013 152.0117 0001433 278.4892  81.5797 15.27576617159298

JSON: /api/v1/satellites/57294 · /tle

For live sub-satellite position, see the globe view (requires WebGL).

§ Visibility from observer

Set your observer location to see the next 7 days of passes ≥ 10°. The values pass through the URL so the page stays shareable.

No JS? Fill the form by hand. The geolocation button needs JavaScript.